Temp
82 81 81 82 81 82 82 82 82 82 82 82 81 81 81 81 80 80 79 78 78 77 78 78 78 78 78 78 78 79 79 78 78 77 77 77 77 77 76 76 76 75 76 75 76 76 77 77 77 78 77 77 77 77 77 77 77 77 76 76 76 76 75
81 81 81 82 82 82 82 82 82 83 82 82 82 81 82 81 80 80 79 79 78 78 78 78 78 78 78 78 79 78 78 78 78 78 77 76 76 76 77 76 76 76 76 76 76 76 77 77 78 77 77 77 77 77 77 77 77 76 76 76 75 75 75
81 81 82 82 81 82 82 82 82 83 83 83 83 82 81 80 81 80 79 79 78 78 78 78 78 78 78 78 78 78 78 78 78 77 77 77 77 77 77 77 77 77 77 76 76 77 77 77 77 77 78 77 78 77 77 77 77 76 76 76 75 75 75
81 81 82 82 82 82 83 83 82 83 84 84 83 83 82 81 81 81 80 80 79 78 77 78 79 78 78 78 78 78 77 78 78 78 78 78 77 77 77 77 77 77 76 76 78 78 78 77 77 77 78 77 77 78 77 77 77 77 76 76 75 75 75
81 82 82 81 81 81 81 82 82 83 84 85 84 83 83 82 82 81 81 81 81 79 79 79 80 79 79 79 79 78 78 78 78 78 78 78 78 77 77 77 77 77 78 78 77 77 77 77 77 77 77 77 77 77 77 77 77 77 76 76 75 75 75
81 81 81 82 82 82 82 83 84 84 84 84 84 83 83 83 83 82 82 81 80 81 80 80 79 79 78 79 79 79 78 78 78 78 78 78 78 77 77 77 77 78 77 77 78 77 77 77 77 77 77 77 78 77 77 77 77 77 77 76 76 75 75
81 81 81 82 82 82 82 83 84 84 85 85 85 84 84 84 83 82 82 81 81 80 80 79 80 79 79 79 79 78 77 78 78 78 79 78 78 78 77 78 78 78 79 77 77 77 77 77 77 77 78 78 77 77 77 77 77 77 77 76 76 76 75
82 81 82 82 83 83 83 83 83 84 85 85 84 84 83 84 83 83 82 82 81 81 81 80 79 79 79 79 79 78 78 78 78 78 78 78 78 78 78 78 78 78 77 77 77 77 78 78 78 78 78 78 77 77 77 77 77 77 77 76 76 76 77
83 83 83 83 83 84 84 83 83 84 83 83 84 83 83 83 83 83 82 82 82 81 81 81 81 80 79 79 78 78 79 78 78 78 78 78 78 78 78 78 78 78 78 78 78 78 78 78 78 78 77 77 77 77 77 77 77 78 77 77 76 76 76
81 81 82 84 84 85 84 83 83 82 81 82 82 82 82 83 83 83 83 83 82 81 81 82 81 81 80 79 79 79 78 78 78 78 78 78 78 78 79 79 79 79 78 79 79 78 78 78 78 78 77 77 77 77 77 77 77 77 77 77 77 76 76
82 81 81 82 82 82 82 82 81 80 81 81 81 83 82 83 83 83 83 83 83 82 83 82 82 81 80 80 79 79 78 78 78 78 78 78 79 79 79 80 80 79 79 79 79 79 79 78 78 78 77 77 77 77 77 78 78 77 77 78 78 77 77
80 80 80 81 81 81 80 81 81 80 80 81 82 83 82 82 83 83 83 83 84 83 82 82 83 82 81 80 79 78 78 78 78 78 78 78 79 79 80 80 80 79 79 79 79 79 80 79 79 79 78 78 78 78 78 78 78 77 78 78 78 77 77
80 80 79 80 80 81 80 79 79 79 80 81 82 83 83 83 83 83 82 82 84 84 83 82 82 81 81 80 80 78 78 78 78 79 79 79 79 80 80 80 80 80 80 80 80 80 79 80 79 79 79 79 79 79 78 78 78 78 78 78 78 78 77
80 80 80 80 80 79 79 79 79 79 79 81 82 82 83 83 84 83 83 82 83 84 83 83 82 81 80 80 79 78 78 78 79 79 79 79 79 79 80 80 80 80 80 80 80 80 80 80 79 80 80 80 79 79 79 78 78 78 78 78 78 78 77
79 79 79 79 79 79 79 79 78 78 79 80 82 81 82 83 83 83 83 83 83 84 83 83 82 81 80 80 79 78 79 79 79 79 79 79 78 78 79 79 79 80 80 80 80 80 81 81 80 79 79 79 79 79 79 79 79 79 79 78 78 78 78
79 79 79 79 79 80 80 80 79 79 79 79 80 81 82 82 82 83 83 83 84 83 84 83 81 80 80 79 79 79 79 79 79 79 79 78 78 78 78 79 79 79 79 79 80 80 80 80 80 80 80 79 79 79 79 79 80 76 70 72 79 78 78
79 79 79 80 79 80 80 80 80 79 79 79 80 81 82 82 82 83 84 84 84 83 84 83 81 80 80 79 79 79 79 79 78 78 78 78 78 78 78 78 78 78 78 78 79 79 79 79 79 80 80 80 79 79 79 79 80 71 67 67 69 77 78
79 78 79 80 80 81 80 80 78 78 78 80 81 81 82 81 82 83 83 83 84 84 85 83 82 80 80 80 80 79 79 79 78 78 78 78 78 78 78 78 78 77 78 78 78 78 79 79 79 79 80 80 80 80 80 80 73 68 66 66 65 69 78
79 80 80 79 80 80 80 80 79 79 80 81 82 82 83 83 83 82 83 83 83 84 84 82 82 81 80 80 80 79 79 79 78 78 78 78 78 78 78 77 77 77 77 77 78 79 78 78 79 79 79 80 79 79 80 80 72 67 66 65 65 64 69
80 81 81 81 82 81 81 81 80 81 81 81 82 84 84 84 84 84 84 84 83 83 82 82 81 81 80 80 80 80 80 79 79 78 78 78 78 78 78 77 77 77 78 78 78 78 78 78 78 79 78 79 79 79 80 80 73 67 64 64 63 64 66
71 74 77 78 79 80 79 79 79 79 79 81 83 83 83 83 84 82 82 82 82 82 82 82 81 81 81 80 80 80 80 79 79 78 78 78 78 78 78 77 77 77 78 79 78 78 78 78 78 78 79 79 80 80 80 81 71 65 63 62 61 62 64
70 73 72 72 74 73 75 76 77 80 80 81 82 82 84 83 84 84 83 82 82 82 82 81 81 81 80 80 80 80 80 80 79 79 79 78 78 78 77 77 77 77 78 78 79 79 79 79 79 79 79 79 80 79 79 82 70 64 62 61 61 62 68
73 72 72 72 74 73 73 75 77 77 78 78 80 80 82 82 83 83 81 81 82 81 81 81 80 80 80 81 81 81 81 81 80 79 79 79 78 77 78 77 77 78 79 78 79 79 79 79 79 79 79 79 79 79 79 80 73 64 61 60 59 61 70
75 75 75 74 74 75 75 75 76 77 78 77 77 78 80 81 82 81 80 80 80 81 80 81 81 81 81 81 82 82 82 81 81 80 79 79 78 78 79 79 79 79 79 79 78 79 80 80 80 80 80 80 79 80 79 80 75 64 60 58 58 63 72
74 74 74 75 75 75 75 75 76 76 75 75 74 73 76 81 81 81 80 80 80 81 81 81 82 82 82 82 83 83 83 82 81 81 80 79 79 79 79 79 79 80 80 80 80 80 80 80 80 80 80 81 81 77 79 80 76 64 61 59 57 63 73
71 73 73 74 74 74 75 76 76 74 73 73 72 73 75 77 80 81 80 80 81 81 82 82 83 84 84 84 84 84 83 83 81 81 81 80 80 80 80 80 80 80 80 79 80 80 80 80 80 80 80 81 81 81 80 80 81 75 61 59 56 58 72
72 73 72 73 73 76 74 74 73 72 72 72 73 74 74 76 77 76 76 76 76 79 81 81 81 82 82 82 83 83 83 83 82 82 82 82 81 81 81 81 80 80 79 79 80 80 79 79 80 80 80 80 81 81 81 81 80 78 60 57 56 56 62
72 72 73 74 75 74 73 73 72 73 73 73 74 74 74 75 75 73 73 72 73 73 74 75 78 79 78 79 80 82 82 82 82 83 82 82 82 80 79 80 81 80 80 80 79 78 78 78 78 79 79 80 80 80 80 81 76 82 63 58 56 55 55
68 69 70 70 71 73 73 71 71 71 72 73 74 74 74 75 74 73 72 72 72 73 73 74 74 76 78 79 79 80 81 81 82 82 83 82 81 80 79 80 80 80 79 79 78 77 77 77 77 77 77 78 77 77 78 79 78 70 74 58 56 55 54
67 68 70 71 71 71 72 70 70 71 71 72 72 72 73 74 73 74 72 71 72 72 73 73 73 74 76 77 78 79 80 81 82 82 82 82 81 80 79 79 79 79 79 78 78 77 77 76 77 76 77 76 75 75 75 77 79 71 67 68 56 55 54
66 67 67 68 70 71 71 70 69 70 70 70 71 71 71 72 73 73 72 71 73 73 74 73 73 73 74 75 76 77 79 80 80 81 81 81 81 79 79 78 78 78 78 77 77 77 76 76 76 76 76 75 75 74 74 76 76 73 66 66 60 55 54
66 67 67 68 69 70 70 70 70 70 69 69 69 71 71 71 72 71 70 71 73 73 73 74 72 72 73 74 74 76 77 78 79 79 80 80 80 81 80 80 78 78 77 77 77 77 76 76 75 75 75 75 75 74 75 72 68 66 64 64 61 58 54
64 65 65 66 68 70 68 69 69 69 69 68 68 69 70 70 70 70 70 72 73 73 73 74 74 74 74 73 73 74 75 77 76 77 78 78 79 80 80 80 80 78 76 77 77 76 76 76 75 74 74 74 74 74 70 68 67 66 65 64 63 62 59
63 64 65 66 67 68 67 67 66 67 68 67 66 67 68 69 69 70 70 71 72 72 73 73 73 73 72 72 73 74 75 75 80 78 76 75 75 76 77 78 79 78 76 76 76 76 76 76 75 74 75 74 74 71 67 66 66 66 66 64 64 62 61
62 63 64 65 66 67 65 66 66 65 66 66 66 67 67 67 68 69 70 71 71 72 72 73 73 71 71 72 72 73 76 75 77 75 70 63 59 54 53 56 63 69 74 72 71 77 80 78 76 76 77 77 73 69 68 66 66 68 62 66 61 65 65
62 62 63 65 65 65 66 67 66 65 65 65 65 67 67 67 68 68 70 70 70 71 72 71 70 69 69 71 72 72 74 74 72 70 68 65 62 60 57 53 48 49 62 67 60 56 57 64 77 78 77 74 69 70 73 71 69 50 47 48 48 49 51
61 62 63 64 64 64 65 65 67 66 66 64 65 66 66 67 67 68 70 70 69 70 70 70 70 69 69 70 70 71 72 71 70 68 67 66 66 65 64 64 59 47 45 50 51 48 47 55 60 63 66 72 66 57 54 52 47 46 45 45 45 45 45
61 61 63 63 63 63 64 65 64 66 66 65 66 65 66 66 67 67 69 70 70 69 69 69 69 68 68 69 69 70 70 70 69 68 67 67 67 67 67 66 64 62 51 45 47 48 45 44 46 50 53 55 58 59 57 50 46 45 45 44 44 43 42
MSLP
1002.51 1003.19 1003.43 1003.63 1004.27 1004.39 1004.39 1004.59 1004.83 1005.15 1005.31 1005.79 1006.23 1006.75 1007.31 1007.67 1008.07 1008.51 1009.07 1009.47 1009.95 1010.43 1010.59 1010.79 1011.11 1011.43 1011.83 1012.03 1012.27 1012.51 1012.83 1013.27 1013.63 1014.07 1014.39 1014.55 1014.71 1015.03 1015.39 1015.55 1015.79 1015.91 1016.03 1016.31 1016.35 1016.39 1016.35 1016.51 1016.75 1016.83 1016.99 1017.11 1017.23 1017.35 1017.51 1017.63 1017.83 1017.91 1018.07 1018.19 1018.39 1018.59 1018.71
1003.03 1002.99 1003.15 1003.39 1003.75 1003.87 1003.95 1004.11 1004.27 1004.59 1004.99 1005.35 1005.79 1006.27 1006.75 1007.23 1007.63 1008.15 1008.51 1008.87 1009.27 1009.67 1010.07 1010.43 1010.75 1011.07 1011.35 1011.67 1011.91 1012.27 1012.75 1013.03 1013.35 1013.63 1013.99 1014.39 1014.55 1014.71 1014.87 1015.15 1015.39 1015.59 1015.67 1015.71 1015.87 1015.99 1016.19 1016.35 1016.47 1016.71 1016.87 1016.95 1017.03 1017.11 1017.31 1017.47 1017.63 1017.79 1017.99 1018.11 1018.35 1018.47 1018.59
1002.67 1002.63 1002.75 1002.95 1003.19 1003.35 1003.43 1003.71 1003.91 1003.95 1004.39 1004.87 1005.35 1005.87 1006.15 1006.47 1006.83 1007.31 1007.91 1008.51 1009.07 1009.39 1009.67 1009.99 1010.23 1010.63 1010.95 1011.31 1011.79 1012.11 1012.39 1012.79 1013.15 1013.51 1013.87 1014.07 1014.19 1014.31 1014.47 1014.75 1014.99 1015.19 1015.31 1015.43 1015.63 1015.83 1015.87 1016.15 1016.27 1016.43 1016.63 1016.83 1016.91 1017.03 1017.11 1017.31 1017.43 1017.59 1017.75 1017.87 1018.11 1018.31 1018.43
1001.99 1002.19 1002.15 1002.07 1002.15 1002.23 1002.47 1002.83 1003.15 1003.55 1003.83 1004.07 1004.43 1004.83 1005.43 1005.91 1006.19 1006.71 1007.23 1007.79 1008.55 1009.07 1009.55 1009.67 1009.91 1010.31 1010.59 1011.07 1011.51 1011.87 1012.23 1012.43 1012.67 1013.03 1013.27 1013.51 1013.87 1014.07 1014.43 1014.59 1014.79 1014.99 1015.31 1015.35 1015.27 1015.43 1015.59 1015.83 1016.11 1016.27 1016.39 1016.63 1016.75 1016.79 1016.95 1017.07 1017.19 1017.35 1017.51 1017.71 1017.95 1017.99 1018.11
1000.95 1001.11 1001.67 1002.19 1002.47 1002.79 1003.07 1003.27 1003.35 1003.31 1003.35 1003.47 1003.83 1004.23 1004.71 1005.27 1005.87 1006.47 1006.99 1007.39 1007.87 1008.43 1008.67 1009.07 1009.51 1009.87 1010.19 1010.51 1010.99 1011.35 1011.75 1012.11 1012.47 1012.71 1012.99 1013.23 1013.55 1013.91 1014.23 1014.43 1014.59 1014.75 1014.75 1014.91 1015.11 1015.35 1015.55 1015.75 1015.99 1016.15 1016.31 1016.39 1016.55 1016.67 1016.79 1016.83 1016.99 1017.11 1017.31 1017.51 1017.79 1017.87 1017.99
1000.47 1001.03 1001.39 1001.63 1002.07 1002.35 1002.31 1002.31 1002.43 1002.59 1002.87 1003.31 1003.67 1004.15 1004.63 1005.19 1005.71 1006.27 1006.63 1007.19 1007.67 1007.99 1008.43 1008.95 1009.35 1009.67 1010.15 1010.31 1010.63 1010.99 1011.39 1011.75 1012.03 1012.31 1012.63 1012.95 1013.35 1013.71 1013.91 1014.03 1014.23 1014.43 1014.71 1014.75 1014.83 1015.03 1015.19 1015.47 1015.71 1015.87 1016.11 1016.19 1016.31 1016.47 1016.55 1016.75 1016.79 1016.87 1017.07 1017.31 1017.47 1017.63 1017.87
999.91 1000.19 1000.55 1000.87 1001.19 1001.47 1001.63 1001.83 1002.07 1002.31 1002.43 1002.75 1003.23 1003.75 1004.39 1004.99 1005.51 1005.87 1006.31 1006.91 1007.27 1007.91 1008.43 1008.91 1009.11 1009.43 1009.75 1010.03 1010.39 1010.79 1011.23 1011.51 1011.83 1012.15 1012.31 1012.71 1012.99 1013.35 1013.51 1013.75 1013.91 1014.11 1014.19 1014.47 1014.79 1014.83 1015.15 1015.27 1015.39 1015.55 1015.71 1015.91 1016.11 1016.23 1016.35 1016.51 1016.67 1016.63 1016.83 1017.11 1017.31 1017.39 1017.51
999.03 999.67 999.71 999.91 1000.19 1000.39 1000.87 1001.31 1001.63 1001.99 1002.43 1002.87 1003.47 1003.95 1004.31 1004.59 1005.07 1005.63 1006.07 1006.35 1006.91 1007.51 1008.03 1008.43 1008.87 1009.15 1009.43 1009.79 1010.07 1010.47 1010.79 1011.11 1011.35 1011.71 1012.07 1012.47 1012.75 1013.03 1013.27 1013.47 1013.63 1013.75 1014.11 1014.43 1014.43 1014.59 1014.79 1014.95 1015.11 1015.27 1015.43 1015.71 1015.83 1015.95 1016.03 1016.19 1016.31 1016.43 1016.59 1016.91 1017.11 1017.23 1017.23
998.23 998.39 998.83 999.23 999.55 999.91 1000.31 1000.75 1001.15 1001.63 1002.11 1002.51 1002.83 1003.19 1003.67 1004.19 1004.71 1005.15 1005.59 1006.07 1006.55 1007.11 1007.55 1007.83 1008.23 1008.55 1008.95 1009.43 1009.91 1010.23 1010.43 1010.79 1011.15 1011.47 1011.91 1012.27 1012.47 1012.75 1012.95 1013.15 1013.35 1013.47 1013.91 1014.07 1014.19 1014.27 1014.43 1014.63 1014.79 1014.99 1015.19 1015.43 1015.55 1015.67 1015.83 1015.87 1015.99 1016.11 1016.35 1016.55 1016.75 1016.95 1017.07
998.19 998.55 998.51 998.51 998.75 999.23 999.71 1000.27 1000.91 1001.71 1002.39 1002.75 1003.03 1003.39 1003.59 1003.79 1004.23 1004.67 1005.15 1005.55 1006.11 1006.71 1007.07 1007.51 1007.91 1008.31 1008.83 1009.23 1009.55 1009.79 1010.23 1010.63 1010.91 1011.35 1011.67 1012.03 1012.15 1012.43 1012.59 1012.75 1012.99 1013.19 1013.51 1013.63 1013.83 1014.11 1014.11 1014.23 1014.47 1014.71 1014.99 1015.23 1015.35 1015.43 1015.51 1015.63 1015.71 1015.83 1015.95 1016.15 1016.35 1016.55 1016.71
997.55 997.83 998.19 998.63 999.07 999.43 999.95 1000.63 1001.27 1001.59 1001.71 1001.99 1002.35 1002.63 1003.03 1003.47 1003.87 1004.27 1004.75 1005.19 1005.71 1006.11 1006.51 1007.03 1007.43 1008.03 1008.47 1008.87 1009.35 1009.67 1010.11 1010.43 1010.71 1011.07 1011.39 1011.63 1011.83 1012.07 1012.23 1012.43 1012.67 1012.87 1013.11 1013.35 1013.63 1013.67 1013.83 1014.03 1014.11 1014.43 1014.71 1014.91 1014.99 1015.11 1015.19 1015.23 1015.31 1015.55 1015.67 1015.75 1015.83 1016.03 1016.23
997.47 997.83 998.15 998.35 998.75 999.35 1000.03 1000.31 1000.59 1000.91 1001.19 1001.59 1001.91 1002.23 1002.59 1002.99 1003.43 1003.91 1004.35 1004.75 1004.95 1005.67 1006.23 1006.67 1007.07 1007.59 1008.15 1008.55 1009.11 1009.51 1009.87 1010.11 1010.43 1010.71 1010.95 1011.19 1011.39 1011.63 1011.83 1012.07 1012.35 1012.59 1012.75 1012.91 1013.23 1013.31 1013.43 1013.67 1013.87 1014.03 1014.23 1014.31 1014.43 1014.55 1014.71 1014.83 1015.03 1015.19 1015.31 1015.43 1015.55 1015.71 1015.83
997.03 997.47 997.83 998.23 998.59 998.83 999.23 999.95 1000.35 1000.55 1000.83 1001.03 1001.35 1001.75 1002.19 1002.63 1003.11 1003.55 1004.03 1004.51 1004.75 1005.11 1005.67 1006.19 1006.71 1007.19 1007.75 1008.19 1008.63 1009.07 1009.35 1009.63 1009.87 1010.11 1010.43 1010.67 1010.91 1011.11 1011.43 1011.71 1011.91 1012.15 1012.39 1012.43 1012.67 1012.95 1013.19 1013.27 1013.51 1013.55 1013.71 1013.83 1013.95 1014.15 1014.27 1014.47 1014.63 1014.83 1014.99 1015.11 1015.23 1015.35 1015.55
996.43 996.99 997.43 997.83 998.39 998.95 999.39 999.51 999.79 1000.31 1000.63 1000.87 1001.19 1001.47 1001.95 1002.27 1002.63 1003.11 1003.63 1004.11 1004.35 1004.71 1005.27 1005.75 1006.31 1006.87 1007.35 1007.83 1008.27 1008.55 1008.79 1008.95 1009.11 1009.47 1009.79 1010.15 1010.51 1010.83 1011.07 1011.31 1011.55 1011.71 1011.83 1012.07 1012.39 1012.59 1012.71 1012.95 1013.11 1013.15 1013.27 1013.35 1013.55 1013.55 1013.79 1014.11 1014.35 1014.47 1014.59 1014.71 1014.83 1014.99 1015.15
996.75 997.07 997.51 998.03 998.31 998.55 998.87 999.35 999.67 1000.03 1000.35 1000.55 1000.87 1001.43 1001.79 1002.15 1002.55 1002.91 1003.35 1003.71 1004.07 1004.39 1004.75 1005.03 1005.79 1006.39 1006.87 1007.31 1007.79 1007.99 1008.19 1008.51 1008.83 1009.11 1009.51 1009.87 1010.27 1010.59 1010.83 1010.99 1011.15 1011.35 1011.55 1011.75 1011.95 1012.07 1012.19 1012.35 1012.63 1012.91 1013.07 1013.07 1013.19 1013.31 1013.47 1013.75 1013.87 1013.87 1014.03 1014.27 1014.43 1014.51 1014.75
996.55 996.87 997.35 997.67 997.95 998.15 998.35 998.55 999.03 999.47 999.83 1000.27 1000.71 1001.11 1001.55 1001.95 1002.23 1002.47 1002.87 1003.23 1003.47 1003.87 1004.15 1004.71 1005.39 1005.95 1006.43 1006.83 1007.11 1007.39 1007.75 1008.11 1008.47 1008.83 1009.15 1009.59 1009.91 1010.15 1010.43 1010.71 1010.91 1011.15 1011.35 1011.47 1011.59 1011.75 1011.87 1012.07 1012.27 1012.47 1012.67 1012.87 1012.95 1013.03 1013.19 1013.27 1013.19 1013.19 1013.31 1013.47 1013.75 1014.11 1014.31
996.43 996.71 996.91 997.03 997.35 997.71 997.91 998.27 998.67 999.19 999.71 1000.07 1000.35 1000.67 1000.99 1001.27 1001.51 1001.91 1002.35 1002.71 1003.11 1003.47 1003.67 1004.19 1005.03 1005.51 1005.91 1006.39 1006.63 1006.99 1007.39 1007.87 1008.23 1008.55 1008.99 1009.15 1009.43 1009.75 1010.07 1010.35 1010.59 1010.83 1011.03 1011.19 1011.35 1011.51 1011.63 1011.83 1012.11 1012.15 1012.23 1012.39 1012.59 1012.79 1012.83 1012.79 1012.63 1012.63 1012.91 1013.11 1013.31 1013.59 1013.87
996.23 996.47 996.71 996.91 997.07 997.31 997.83 998.27 998.87 999.31 999.59 999.75 999.91 1000.19 1000.55 1000.99 1001.31 1001.71 1002.03 1002.23 1002.67 1002.95 1003.31 1003.95 1004.55 1005.15 1005.59 1005.87 1006.27 1006.59 1006.99 1007.39 1007.83 1008.27 1008.59 1008.87 1009.19 1009.39 1009.63 1009.91 1010.23 1010.51 1010.67 1010.91 1011.11 1011.19 1011.31 1011.59 1011.63 1011.71 1011.83 1011.95 1012.11 1012.27 1012.27 1012.27 1012.11 1012.31 1012.51 1012.79 1013.07 1013.27 1013.35
995.55 995.79 996.15 996.47 996.87 997.19 997.51 997.95 998.27 998.59 998.87 999.15 999.43 999.79 999.87 1000.11 1000.75 1001.19 1001.27 1001.83 1002.07 1002.51 1003.15 1003.67 1004.15 1004.75 1005.19 1005.43 1005.75 1006.15 1006.55 1006.95 1007.43 1007.83 1008.19 1008.47 1008.67 1008.95 1009.23 1009.55 1009.83 1010.07 1010.35 1010.55 1010.55 1010.83 1011.15 1011.11 1011.27 1011.39 1011.39 1011.59 1011.79 1011.83 1011.75 1011.79 1011.63 1011.95 1012.15 1012.39 1012.67 1012.91 1013.15
995.07 995.19 995.51 995.83 996.11 996.51 996.83 997.19 997.63 997.95 998.11 998.39 998.63 998.75 999.03 999.43 999.83 1000.11 1000.47 1001.15 1001.79 1002.35 1002.83 1003.39 1003.87 1004.23 1004.63 1004.91 1005.27 1005.63 1006.03 1006.47 1006.91 1007.39 1007.63 1007.87 1008.19 1008.47 1008.83 1009.15 1009.39 1009.47 1009.63 1009.91 1010.19 1010.47 1010.51 1010.59 1010.83 1010.83 1011.03 1011.15 1011.27 1011.35 1011.35 1011.35 1011.23 1011.55 1011.79 1012.07 1012.35 1012.59 1013.03
995.47 995.51 995.79 995.99 996.31 996.51 996.79 996.99 997.35 997.83 998.31 998.55 998.55 998.87 999.39 999.87 1000.03 1000.55 1001.11 1001.39 1001.91 1002.15 1002.67 1003.03 1003.47 1003.87 1004.15 1004.55 1004.83 1005.19 1005.59 1006.11 1006.47 1006.91 1007.19 1007.43 1007.71 1008.07 1008.39 1008.63 1008.87 1009.11 1009.27 1009.47 1009.71 1009.91 1010.07 1010.23 1010.43 1010.43 1010.51 1010.67 1010.79 1010.99 1011.03 1010.75 1010.75 1011.19 1011.43 1011.67 1011.99 1012.31 1012.83
995.91 995.59 995.87 995.99 996.27 996.59 996.83 997.23 997.47 997.67 997.91 997.91 998.43 998.87 999.11 999.59 999.87 1000.47 1000.91 1001.07 1001.63 1002.03 1002.35 1002.71 1003.19 1003.51 1003.83 1004.27 1004.55 1004.87 1005.15 1005.59 1006.03 1006.39 1006.67 1006.99 1007.31 1007.67 1007.99 1008.15 1008.35 1008.63 1008.75 1008.95 1009.07 1009.11 1009.31 1009.51 1009.63 1009.87 1010.07 1010.15 1010.35 1010.59 1010.59 1010.15 1010.31 1010.67 1010.95 1011.23 1011.59 1012.11 1012.67
996.59 996.43 996.39 996.47 996.19 996.63 996.67 996.87 997.31 997.63 997.87 998.19 998.39 998.79 999.15 999.43 999.83 1000.35 1000.95 1001.39 1001.59 1001.87 1002.23 1002.59 1003.07 1003.31 1003.51 1003.83 1004.07 1004.35 1004.63 1004.99 1005.47 1005.87 1006.15 1006.43 1006.87 1007.23 1007.47 1007.71 1007.91 1008.03 1008.07 1008.55 1008.63 1008.83 1008.91 1008.95 1009.07 1009.15 1009.47 1009.71 1009.87 1010.07 1009.99 1009.87 1009.91 1010.23 1010.47 1010.75 1011.19 1011.99 1012.23
996.71 996.55 996.59 996.71 996.71 996.87 996.99 997.19 997.35 997.51 997.75 998.27 998.55 998.63 998.83 999.15 999.67 1000.27 1000.87 1001.23 1001.43 1001.79 1002.15 1002.43 1002.71 1002.79 1003.07 1003.35 1003.55 1003.75 1003.99 1004.31 1004.71 1005.23 1005.55 1005.91 1006.35 1006.59 1006.75 1006.83 1006.95 1007.27 1007.35 1007.83 1008.11 1008.31 1008.23 1008.35 1008.59 1008.63 1008.75 1008.99 1009.23 1009.27 1009.59 1009.51 1009.43 1009.75 1009.99 1010.35 1010.87 1011.23 1011.59
997.59 997.31 997.15 997.07 996.99 997.35 997.47 997.63 997.75 998.11 998.31 998.59 999.07 999.03 998.67 998.71 999.27 999.99 1000.67 1000.95 1001.27 1001.51 1001.87 1002.07 1002.11 1002.31 1002.63 1002.83 1002.87 1003.03 1003.27 1003.63 1004.03 1004.43 1004.87 1005.31 1005.59 1005.75 1006.11 1006.27 1006.43 1006.39 1006.59 1006.91 1007.19 1007.39 1007.51 1007.79 1008.07 1008.19 1008.23 1008.27 1008.51 1008.71 1009.07 1009.07 1009.07 1009.23 1009.47 1009.79 1010.27 1010.79 1010.99
998.47 998.07 997.83 997.63 997.51 997.47 997.67 997.67 997.79 998.47 998.95 999.31 999.47 998.99 998.79 998.87 999.27 999.79 1000.31 1000.67 1000.83 1001.31 1001.47 1001.43 1001.39 1001.35 1001.51 1001.79 1002.03 1002.31 1002.67 1003.03 1003.51 1003.83 1004.23 1004.67 1004.91 1005.07 1005.27 1005.35 1005.71 1006.07 1006.35 1006.55 1006.71 1006.99 1007.15 1007.35 1007.59 1007.87 1007.91 1007.87 1008.15 1008.31 1008.43 1008.71 1008.67 1008.67 1008.91 1009.19 1009.67 1010.11 1010.31
998.83 998.63 998.51 998.31 998.27 997.79 997.91 998.23 998.55 999.15 999.39 999.55 999.39 999.11 999.03 999.11 999.63 1000.19 1000.39 1000.63 1000.95 1001.11 1001.07 1000.91 1000.91 1001.11 1001.31 1001.55 1001.87 1002.15 1002.39 1002.59 1002.95 1003.39 1003.59 1003.79 1004.11 1004.31 1004.59 1004.87 1005.27 1005.51 1005.87 1006.19 1006.35 1006.59 1006.91 1007.11 1007.27 1007.47 1007.55 1007.59 1007.67 1007.83 1007.91 1007.99 1008.27 1008.19 1008.43 1008.71 1009.11 1009.51 1009.87
999.27 999.03 998.75 998.67 998.55 998.43 998.55 998.67 998.91 999.11 999.31 999.35 999.31 999.31 999.39 999.43 1000.03 1000.47 1000.63 1000.95 1001.23 1001.19 1000.95 1000.87 1000.87 1000.99 1001.31 1001.63 1001.83 1001.99 1002.19 1002.35 1002.51 1002.71 1003.03 1003.23 1003.63 1004.19 1004.51 1004.47 1004.63 1004.95 1005.23 1005.55 1005.91 1006.35 1006.63 1006.79 1006.95 1007.15 1007.27 1007.31 1007.35 1007.43 1007.51 1007.43 1007.59 1007.71 1007.99 1008.35 1008.67 1008.99 1009.23
1000.19 999.99 999.83 999.59 999.31 999.03 998.71 999.03 999.27 999.47 999.63 999.59 999.55 999.55 999.63 999.75 1000.35 1000.79 1000.95 1001.35 1001.59 1001.31 1001.11 1001.07 1001.03 1000.99 1001.03 1001.27 1001.59 1001.79 1001.95 1002.07 1002.27 1002.51 1002.67 1002.99 1003.23 1003.67 1004.11 1004.15 1004.43 1004.63 1004.91 1005.35 1005.75 1006.11 1006.47 1006.63 1006.79 1007.03 1007.23 1007.27 1007.23 1007.19 1007.19 1007.15 1007.15 1007.27 1007.55 1007.91 1008.19 1008.39 1008.75
1000.59 1000.35 1000.07 999.79 999.63 999.51 999.11 999.23 999.39 999.63 999.79 999.79 999.75 999.75 999.83 999.95 1000.63 1000.91 1001.15 1001.47 1001.23 1001.07 1000.95 1000.87 1000.87 1000.95 1001.07 1001.15 1001.19 1001.31 1001.47 1001.63 1001.83 1002.07 1002.23 1002.51 1002.83 1003.23 1003.67 1003.95 1004.11 1004.39 1004.67 1004.95 1005.39 1005.87 1006.23 1006.39 1006.51 1006.83 1007.11 1007.31 1007.35 1007.15 1006.99 1006.83 1006.83 1006.91 1007.07 1007.35 1007.67 1007.95 1008.23
1001.27 1001.07 1000.79 1000.55 1000.27 999.87 999.59 999.59 999.71 999.79 999.95 999.95 999.91 999.87 999.95 1000.03 1000.43 1000.75 1001.11 1001.11 1000.79 1000.87 1000.83 1000.79 1000.79 1000.87 1001.03 1001.07 1001.11 1001.15 1001.11 1001.23 1001.43 1001.67 1001.91 1002.15 1002.47 1003.07 1003.39 1003.75 1003.95 1004.47 1004.51 1004.83 1005.23 1005.51 1005.91 1006.11 1006.23 1006.59 1006.75 1006.99 1007.15 1007.07 1006.91 1006.71 1006.67 1006.79 1006.99 1007.19 1007.47 1007.75 1008.03
1001.39 1001.19 1000.99 1000.71 1000.47 1000.19 1000.03 999.83 999.71 999.79 1000.03 1000.15 1000.11 1000.15 1000.19 1000.31 1000.43 1000.95 1001.19 1000.87 1000.75 1000.71 1000.71 1000.55 1000.63 1000.79 1000.91 1000.99 1001.07 1001.07 1001.03 1001.31 1001.35 1001.43 1001.59 1001.83 1002.07 1002.39 1002.67 1003.11 1003.59 1003.99 1004.27 1004.55 1004.83 1005.07 1005.47 1005.75 1005.99 1006.23 1006.47 1006.71 1006.71 1006.79 1006.63 1006.67 1006.87 1007.03 1007.15 1007.27 1007.43 1007.71 1008.07
1002.19 1001.91 1001.71 1001.47 1001.11 1000.67 1000.51 1000.35 1000.35 1000.35 1000.43 1000.63 1000.51 1000.43 1000.43 1000.51 1000.59 1000.79 1000.75 1000.75 1000.67 1000.67 1000.63 1000.55 1000.51 1000.63 1000.71 1000.87 1000.95 1001.03 1001.19 1001.31 1001.47 1001.59 1001.63 1001.79 1001.95 1002.11 1002.35 1002.67 1003.11 1003.51 1003.95 1004.19 1004.55 1004.91 1005.15 1005.47 1005.75 1006.03 1006.27 1006.47 1006.51 1006.43 1006.59 1006.87 1006.95 1007.07 1007.19 1007.35 1007.47 1007.67 1008.03
1002.63 1002.23 1001.87 1001.67 1001.39 1001.15 1000.95 1000.91 1000.95 1000.99 1000.95 1001.07 1000.95 1000.75 1000.71 1000.67 1000.71 1000.67 1000.63 1000.63 1000.63 1000.63 1000.63 1000.67 1000.67 1000.63 1000.71 1000.79 1000.87 1000.99 1001.07 1001.27 1001.27 1001.47 1001.75 1001.91 1002.11 1002.39 1002.59 1002.71 1002.83 1003.27 1003.67 1003.99 1004.23 1004.67 1005.03 1005.19 1005.51 1005.71 1005.87 1006.07 1006.07 1006.35 1006.79 1006.99 1006.99 1007.03 1007.03 1007.23 1007.35 1007.67 1007.99
1002.87 1002.63 1002.31 1002.03 1001.75 1001.51 1001.55 1001.27 1001.19 1001.15 1001.11 1001.15 1000.95 1000.67 1000.63 1000.63 1000.55 1000.51 1000.47 1000.51 1000.55 1000.55 1000.67 1000.79 1000.71 1000.59 1000.59 1000.67 1000.79 1000.99 1000.99 1001.15 1001.23 1001.47 1001.99 1002.59 1003.07 1003.71 1004.07 1003.79 1003.39 1003.35 1003.31 1003.27 1003.35 1003.55 1004.03 1004.47 1004.67 1004.71 1004.75 1004.99 1005.55 1006.23 1006.79 1006.99 1006.91 1006.75 1006.75 1006.83 1006.95 1007.11 1007.55
1002.99 1002.79 1002.55 1002.27 1001.99 1001.75 1001.51 1001.35 1001.15 1001.15 1001.15 1001.07 1000.87 1000.71 1000.75 1000.75 1000.67 1000.55 1000.51 1000.51 1000.47 1000.43 1000.59 1000.75 1000.79 1000.71 1000.71 1000.71 1000.83 1000.95 1001.11 1001.31 1001.51 1001.91 1002.31 1002.67 1003.11 1003.55 1004.43 1005.07 1004.75 1004.35 1003.79 1003.59 1003.67 1003.71 1003.59 1003.59 1003.91 1003.87 1004.11 1004.71 1005.03 1005.19 1005.63 1005.91 1006.19 1006.83 1007.03 1007.19 1007.31 1007.39 1007.43
1003.35 1002.95 1002.67 1002.43 1002.23 1002.03 1001.99 1001.83 1001.55 1001.39 1001.43 1001.31 1001.11 1001.03 1000.99 1000.95 1000.87 1000.71 1000.59 1000.59 1000.47 1000.35 1000.47 1000.63 1000.87 1000.99 1000.79 1000.83 1000.95 1001.03 1001.15 1001.43 1001.83 1002.19 1002.43 1002.75 1002.99 1003.31 1003.67 1004.11 1004.43 1004.75 1004.79 1004.43 1004.15 1003.91 1003.83 1003.75 1003.55 1003.55 1003.75 1004.11 1005.19 1005.83 1005.63 1006.07 1006.75 1007.03 1007.27 1007.43 1007.67 1007.83 1007.91
1003.83 1003.55 1003.23 1002.95 1002.83 1002.71 1002.55 1002.31 1002.19 1001.87 1001.75 1001.51 1001.23 1001.07 1000.91 1000.91 1000.91 1000.95 1000.79 1000.67 1000.59 1000.47 1000.43 1000.59 1000.83 1001.15 1001.07 1000.91 1001.07 1001.19 1001.35 1001.55 1001.87 1002.23 1002.51 1002.87 1002.99 1003.15 1003.43 1003.71 1004.19 1004.79 1005.03 1004.95 1004.51 1004.35 1004.35 1004.39 1004.43 1004.27 1004.27 1004.59 1004.95 1005.47 1006.63 1006.75 1006.75 1007.11 1007.43 1007.71 1007.87 1008.07 1008.31
Wind_Speed
20 19 19 18 17 18 19 19 19 19 19 19 18 19 18 17 17 16 16 17 19 18 18 17 18 16 17 16 16 14 13 12 11 11 10 10 9 9 9 8 8 8 8 9 9 9 9 7 9 9 7 7 7 7 7 6 6 6 6 6 6 6 6
16 17 18 17 18 19 18 18 18 17 17 17 17 19 18 18 17 17 17 18 20 21 19 18 18 17 17 16 14 14 14 13 13 10 9 8 7 8 8 9 9 9 9 9 8 7 7 8 9 9 8 8 8 7 7 7 7 6 6 6 6 6 6
16 17 17 18 18 18 19 17 17 18 18 17 17 17 19 20 19 20 19 18 19 19 18 19 19 18 16 16 14 14 14 13 12 12 12 12 12 12 9 9 9 8 9 7 7 7 7 8 8 8 9 8 8 7 7 7 7 7 7 6 7 7 7
18 18 18 20 21 21 20 20 20 18 17 19 20 21 20 21 19 19 18 19 20 19 19 19 18 18 16 16 15 14 14 14 14 13 13 12 11 10 9 9 8 7 6 9 9 8 7 8 9 8 9 9 8 8 7 8 8 7 7 7 7 7 7
21 20 17 17 17 15 14 15 16 18 19 20 20 20 20 19 19 17 17 18 19 21 20 20 16 16 14 15 13 12 14 14 13 12 12 10 9 8 9 10 9 9 10 8 7 7 7 8 8 8 8 9 9 8 9 8 8 8 7 7 7 7 7
20 19 17 17 17 16 18 19 20 20 20 20 20 18 17 18 16 18 18 18 17 17 16 16 17 16 15 15 13 13 13 13 13 13 12 11 10 10 11 10 10 10 9 10 8 8 8 8 9 9 10 9 9 9 8 8 9 8 8 7 8 7 7
18 19 19 18 18 19 19 19 18 18 17 17 16 15 15 16 18 18 16 17 18 18 17 17 17 16 15 14 14 14 15 14 13 14 12 11 11 11 11 9 9 9 9 5 8 7 8 9 9 10 10 10 9 10 9 9 9 8 7 8 8 7 7
19 18 19 20 20 20 19 18 18 16 14 12 13 14 17 16 16 17 18 17 17 17 16 17 16 15 15 13 13 15 15 15 13 13 12 12 12 12 11 10 10 9 7 8 8 8 10 10 9 9 10 10 10 10 10 9 10 9 8 9 9 9 7
19 21 21 20 20 19 18 18 18 17 18 18 18 17 18 17 17 17 18 17 16 17 17 17 17 15 14 14 14 15 14 14 13 13 13 14 12 13 12 11 10 8 9 9 8 8 9 9 9 9 9 10 10 10 10 10 10 9 9 10 10 10 9
18 17 18 19 18 18 17 16 15 13 14 14 14 15 17 17 16 16 17 17 16 18 18 16 15 14 14 14 15 15 14 13 12 13 13 14 12 13 12 12 10 9 10 10 8 9 9 9 9 9 9 10 10 10 10 11 10 10 10 11 11 10 11
16 18 18 17 17 16 14 13 15 15 17 17 17 16 16 16 17 16 16 16 16 17 17 16 14 14 15 15 15 14 14 14 13 14 14 14 12 14 13 12 11 10 11 10 10 10 9 9 8 9 10 11 11 12 11 12 11 11 11 10 10 11 11
14 16 16 18 17 16 16 17 16 16 16 16 16 16 16 16 16 16 15 17 16 15 15 15 14 14 14 14 15 14 15 14 14 15 15 15 14 15 14 13 12 11 10 11 12 11 11 11 10 10 11 12 12 12 12 11 11 11 11 11 10 10 10
15 15 16 17 17 17 16 16 18 18 18 18 17 16 15 15 16 15 15 16 16 15 15 15 15 15 15 15 15 14 15 15 15 15 15 15 14 13 13 13 13 13 12 12 12 12 12 11 11 11 11 12 11 12 12 11 11 11 11 11 11 11 11
15 16 14 14 14 16 18 19 18 17 17 17 16 16 14 14 15 15 15 16 16 15 15 13 15 15 15 15 15 15 16 15 15 15 14 13 12 12 13 13 13 13 13 12 13 13 13 12 12 12 11 12 12 12 11 10 10 11 11 11 11 11 12
15 16 15 15 16 17 18 18 17 17 17 18 17 16 16 14 14 13 13 13 14 14 16 15 15 16 16 15 16 15 14 13 12 12 12 13 12 13 13 13 13 12 12 12 12 11 12 12 12 12 12 12 12 12 10 10 11 10 11 12 12 12 12
17 16 16 18 17 18 18 19 18 18 18 17 18 17 16 15 15 15 16 16 16 16 15 15 16 16 16 16 16 14 14 14 12 12 13 13 14 14 13 12 12 12 12 13 12 12 11 11 12 12 13 13 12 11 10 11 10 13 18 16 12 11 11
14 15 16 18 17 18 18 18 17 17 17 17 18 18 18 17 16 15 16 15 15 16 15 15 15 15 16 16 14 14 13 12 13 12 13 14 13 13 13 13 12 12 12 12 12 13 12 11 12 13 13 13 13 13 11 11 11 18 17 18 19 13 11
14 14 15 16 17 17 16 15 13 14 16 17 18 18 16 15 14 15 16 15 15 15 14 14 15 15 15 14 14 14 14 13 13 13 13 13 13 13 13 12 13 13 12 12 13 12 11 12 13 13 13 12 12 13 13 12 15 18 17 17 18 17 13
16 16 16 16 16 16 15 15 16 17 17 16 17 17 17 17 16 17 16 15 15 13 14 14 14 14 14 14 14 14 13 13 14 14 13 14 14 13 13 13 13 14 13 14 12 11 12 14 13 13 13 13 13 14 13 13 16 18 18 17 18 19 17
12 14 15 16 16 17 16 14 13 14 16 17 17 18 17 16 18 17 15 14 12 14 14 14 14 14 15 15 14 14 14 14 14 14 14 14 14 13 13 14 14 14 13 12 11 13 14 14 14 14 13 13 14 13 12 13 16 17 18 17 18 18 15
5 6 8 10 10 10 10 13 13 12 11 12 13 11 9 9 9 6 8 10 12 13 13 14 14 14 14 14 14 14 13 14 14 14 14 14 14 14 14 14 13 13 12 12 13 14 14 13 14 13 13 13 13 12 13 13 17 16 17 17 18 17 14
5 7 7 6 8 7 8 8 10 12 13 9 9 9 10 10 9 10 11 10 12 12 13 13 14 14 13 13 13 14 14 14 14 14 14 14 14 14 14 14 14 14 13 12 12 12 12 12 12 13 13 13 13 13 14 14 16 16 17 18 17 16 10
8 10 9 7 9 8 7 8 8 7 6 6 7 8 8 8 9 9 9 10 11 11 11 12 13 13 13 14 14 14 14 14 15 15 14 14 14 15 14 14 14 13 11 12 13 13 13 14 13 12 12 13 13 14 14 14 14 16 17 17 17 12 9
11 11 11 12 11 11 11 10 9 8 10 9 7 8 9 9 10 10 10 11 10 11 11 12 13 13 13 13 13 14 14 14 15 15 15 14 15 15 14 14 13 13 12 14 14 14 14 13 12 12 13 14 14 14 14 14 14 16 16 17 17 15 11
11 12 12 11 13 14 13 12 12 11 10 9 8 2 7 12 14 12 12 11 11 11 12 13 13 13 13 13 14 14 14 15 15 15 15 15 15 14 15 14 14 14 13 13 13 13 12 12 12 12 12 13 13 15 16 13 13 17 17 18 18 16 10
11 11 12 11 12 12 12 12 15 14 13 10 6 3 5 7 9 11 11 11 11 12 13 13 13 14 13 14 14 14 14 13 14 14 14 15 14 13 14 13 12 12 12 12 11 11 11 11 11 13 12 11 12 12 13 13 12 12 18 18 18 20 13
10 9 11 11 10 10 14 14 14 13 11 7 6 6 5 7 7 5 5 6 6 10 9 5 5 6 8 9 10 11 12 12 13 15 14 14 14 14 13 12 12 12 12 12 11 11 10 11 11 11 11 10 11 11 11 11 12 12 17 18 18 20 18
11 12 10 9 10 10 12 12 13 13 12 10 10 9 7 8 9 6 6 5 2 1 2 2 4 5 5 7 9 10 11 12 12 13 13 13 12 11 11 11 11 11 12 11 10 12 12 11 10 10 10 9 10 10 11 12 16 12 14 18 18 19 22
11 11 10 9 11 8 11 12 13 12 10 9 9 9 8 10 10 7 6 7 2 3 3 3 4 5 8 9 10 10 10 10 12 11 10 10 12 12 12 11 11 11 10 11 10 11 11 11 10 10 9 8 8 7 9 9 10 16 12 15 19 20 20
11 10 10 9 8 7 9 12 11 11 9 8 8 8 8 10 8 6 6 5 3 3 2 3 3 5 6 8 10 11 11 11 11 11 10 11 11 11 12 11 11 10 10 10 10 10 10 9 9 9 9 9 7 7 7 8 9 11 16 14 20 19 20
11 10 9 8 8 8 8 10 10 10 10 8 9 8 8 7 9 7 8 5 4 4 4 3 1 4 5 6 7 9 9 10 10 11 10 10 10 10 10 10 9 9 9 8 9 9 9 9 8 9 9 8 8 8 7 7 8 4 6 12 13 17 17
12 11 11 9 9 8 7 8 9 10 10 10 8 8 6 6 7 7 3 3 4 4 4 4 1 3 4 4 4 6 6 8 9 9 10 10 9 11 10 10 10 10 9 9 9 9 9 9 8 8 8 8 8 7 8 5 4 4 3 2 6 7 12
9 9 9 10 8 6 7 7 8 9 9 9 6 6 6 5 5 4 3 4 4 4 4 4 2 2 2 4 4 4 4 6 7 7 7 8 8 8 8 8 9 9 8 9 9 8 8 8 7 7 7 8 7 7 5 5 4 4 4 3 4 4 5
10 10 10 8 8 6 5 6 6 6 6 6 4 4 4 4 4 4 4 3 3 4 3 3 1 1 2 2 3 5 6 6 9 9 7 4 3 4 4 5 6 8 8 9 9 8 8 8 8 8 8 8 7 6 4 4 4 5 6 6 5 5 5
8 7 7 9 8 7 5 3 4 4 5 4 3 4 4 4 4 4 4 4 3 3 4 4 3 1 1 1 3 4 4 5 6 6 6 6 7 7 6 4 2 1 3 2 1 6 8 9 8 9 9 8 8 8 5 4 6 7 3 5 7 9 8
9 8 8 6 6 7 7 5 3 4 4 4 4 4 5 4 4 4 3 3 3 3 5 3 4 3 2 1 2 3 4 5 5 6 7 7 8 8 8 10 10 6 1 0 6 7 6 5 8 9 8 6 4 4 9 10 6 8 11 10 11 11 12
10 10 9 8 7 9 7 6 2 1 2 2 2 4 3 4 3 4 5 4 3 3 3 3 3 2 1 1 2 3 5 5 6 6 6 7 7 7 8 6 10 15 13 8 6 8 9 2 5 8 9 10 6 6 13 17 15 14 13 14 14 14 14
4 4 5 4 4 4 4 5 3 0 0 0 1 3 4 4 4 4 4 4 4 2 3 4 3 2 1 2 2 4 4 5 6 7 7 6 6 7 8 7 8 8 14 14 14 15 14 13 12 9 12 12 12 11 6 11 16 17 15 14 14 14 13
Wind_Direction
189 189 194 193 191 196 198 193 188 189 191 189 188 186 185 186 186 183 185 186 188 188 189 187 188 189 191 194 195 195 195 193 193 195 196 201 199 197 196 197 197 199 192 193 198 195 199 186 193 201 202 206 207 205 202 200 202 201 200 201 203 205 210
192 194 194 191 195 199 198 192 190 190 189 189 187 185 185 187 185 186 187 187 189 188 187 189 189 190 192 194 194 193 192 193 194 196 196 198 198 200 198 198 198 199 199 200 194 196 183 191 192 197 203 206 211 206 203 203 203 199 198 200 200 210 210
199 197 194 193 195 197 196 191 192 191 188 187 186 185 188 188 186 187 186 187 189 190 188 190 190 190 191 192 191 193 193 191 193 195 195 197 198 198 196 198 202 199 202 196 190 192 189 188 193 196 198 205 211 209 207 206 206 201 200 198 203 206 211
197 197 197 195 196 197 194 191 191 189 189 188 187 188 188 188 187 187 186 187 188 188 190 192 190 190 190 190 192 193 193 194 194 196 200 200 199 195 192 200 201 198 191 200 198 191 190 187 191 196 198 204 209 210 207 211 209 207 203 196 206 210 211
197 197 194 196 198 196 194 195 194 192 192 191 190 188 188 186 184 185 188 189 189 190 191 189 189 190 191 190 190 191 193 193 195 198 200 201 196 190 197 201 199 200 205 200 195 192 188 188 192 195 200 203 209 208 211 211 213 209 207 200 208 210 216
194 192 192 193 193 194 195 196 196 195 191 189 188 187 187 183 183 186 188 187 191 194 191 188 189 188 190 192 191 191 191 195 196 197 198 196 191 194 201 202 200 204 201 203 196 199 191 191 194 195 199 203 206 209 210 210 215 209 209 205 213 211 212
194 192 191 191 191 194 196 196 196 197 195 190 186 184 181 182 186 187 186 189 190 190 189 191 191 189 192 189 193 190 191 193 194 198 197 195 195 199 203 202 202 204 206 187 202 196 196 198 198 198 201 202 205 208 209 210 212 211 209 209 215 216 214
191 191 194 192 193 194 193 192 193 194 190 183 181 182 184 185 186 186 188 189 188 189 190 190 190 191 191 190 192 193 193 194 195 196 194 196 197 202 201 202 203 203 191 197 203 193 202 202 202 202 200 203 206 208 212 212 212 209 208 212 216 220 213
193 191 190 193 193 193 190 189 188 187 185 186 187 185 184 183 187 188 189 187 187 188 191 190 191 191 189 189 190 196 195 192 194 193 195 197 199 203 201 203 205 198 200 205 202 200 203 204 203 202 202 206 208 208 212 213 214 211 208 213 215 218 218
192 194 197 193 190 189 188 185 181 179 183 186 187 186 186 187 187 188 188 187 186 190 189 189 190 189 188 190 193 194 192 193 193 193 195 199 202 203 203 203 203 198 204 207 205 205 207 203 203 202 203 207 210 210 212 213 215 214 212 213 213 217 220
188 191 191 189 187 187 182 175 176 183 186 187 189 189 186 186 188 188 187 186 187 191 188 188 187 188 189 190 193 192 192 193 192 195 197 200 201 204 203 204 203 199 204 204 208 211 208 208 203 203 204 209 210 212 213 214 213 215 216 216 215 217 219
188 187 190 187 184 176 175 178 184 187 185 186 189 189 187 187 187 187 186 188 188 186 184 187 186 189 189 191 192 191 192 194 194 197 199 200 201 203 202 202 202 200 205 204 209 211 210 210 206 206 209 213 214 213 216 214 214 216 217 217 218 220 222
183 186 187 185 180 179 177 178 185 187 185 187 189 189 187 186 186 185 185 186 187 185 184 185 185 188 190 191 193 191 194 194 196 198 199 200 202 201 201 203 202 202 205 204 209 210 212 212 211 213 213 216 215 217 216 215 214 217 217 219 219 221 223
181 183 183 180 177 174 177 183 186 184 185 187 189 188 187 186 186 185 184 186 185 183 183 183 185 187 190 191 194 196 197 197 197 198 199 199 200 202 203 204 204 205 207 204 208 212 213 213 212 216 216 220 218 221 217 216 217 218 219 218 218 219 223
181 182 176 174 179 179 181 184 185 184 185 187 186 185 186 185 186 183 184 185 185 185 187 182 184 187 189 191 195 198 197 197 197 198 197 197 198 202 204 205 207 207 207 208 210 212 215 214 215 217 221 223 222 224 219 218 220 218 216 218 219 218 223
182 180 175 177 181 183 185 186 184 184 184 184 184 186 185 186 186 187 186 187 186 187 185 179 186 187 190 194 196 196 195 195 195 196 195 196 199 202 203 205 206 207 210 211 212 214 214 215 216 219 221 224 224 223 222 223 224 223 217 215 216 216 221
182 182 179 181 180 182 186 186 186 184 182 183 185 186 187 189 188 187 189 189 187 188 184 181 184 188 191 195 194 194 193 193 196 194 197 199 200 200 201 203 204 208 210 211 212 214 214 214 218 220 222 223 224 223 223 225 226 224 219 217 216 215 218
180 180 180 182 182 184 185 184 179 179 183 185 186 187 188 187 186 186 194 190 189 186 180 183 185 188 191 193 192 193 192 193 192 195 198 197 202 201 201 202 204 207 209 210 212 214 213 217 219 221 223 225 226 227 226 227 228 224 221 217 215 215 221
181 180 180 180 182 183 179 179 181 183 185 183 185 188 190 185 184 191 192 189 188 179 181 184 184 186 191 193 193 193 191 191 193 195 196 198 200 201 199 202 204 207 207 211 211 210 214 219 218 221 222 224 226 229 228 230 228 224 222 218 214 215 219
181 179 178 179 181 180 182 181 181 182 181 182 187 191 188 185 188 192 188 184 178 182 183 182 185 187 193 193 192 191 191 191 193 195 197 196 199 200 201 202 206 206 207 208 207 211 216 217 219 221 221 222 226 230 232 232 231 222 221 219 217 215 211
150 166 172 175 177 180 178 178 176 172 176 186 187 182 175 187 190 166 167 176 182 185 182 185 186 190 193 193 193 191 191 191 193 195 196 197 197 199 202 204 206 205 205 205 208 212 215 215 219 221 221 223 224 230 233 235 229 220 218 218 216 214 205
107 115 122 138 139 146 151 161 170 174 180 172 162 169 177 180 170 170 181 178 181 183 186 186 188 192 191 192 192 192 192 191 193 196 196 196 197 199 203 204 204 205 203 206 211 215 215 218 218 220 220 220 223 226 234 237 226 216 215 214 214 204 203
80 94 98 99 109 113 116 122 124 127 121 133 152 156 165 152 160 169 167 174 183 181 186 185 190 193 191 192 192 193 193 192 193 196 197 196 197 200 203 204 205 206 202 206 211 213 214 217 216 218 218 218 219 224 233 238 226 216 214 212 205 189 209
65 74 83 94 92 91 96 97 99 104 118 122 130 152 151 152 160 163 169 179 178 179 186 188 194 193 191 194 193 194 194 194 194 196 197 195 198 200 204 205 205 205 200 205 207 212 215 214 218 217 217 217 218 219 227 234 228 215 215 209 195 189 202
58 65 69 72 90 95 89 90 95 94 88 88 83 63 166 164 164 164 174 175 179 183 189 195 196 193 192 194 196 196 195 195 196 198 197 197 199 200 203 203 203 204 201 206 208 213 212 213 217 219 220 220 221 219 222 231 230 215 213 206 195 193 207
42 54 63 70 69 82 90 91 83 71 71 69 58 54 109 145 155 166 171 177 178 188 198 200 198 197 195 195 196 196 196 195 196 198 198 199 201 202 204 205 204 204 203 206 208 212 211 213 215 219 220 219 219 221 220 226 231 216 210 206 198 192 198
43 44 59 64 72 77 78 76 80 83 79 77 66 55 69 109 121 137 152 158 177 202 209 204 196 200 198 198 197 197 197 197 196 198 200 200 200 201 203 202 203 203 202 205 206 210 213 213 215 218 222 217 217 222 220 220 226 223 203 207 198 197 197
39 41 46 54 64 72 84 82 81 78 70 62 61 60 65 79 83 87 93 102 119 263 278 242 207 182 179 188 197 199 199 199 200 200 201 201 199 199 204 205 204 204 203 204 204 207 212 212 214 217 221 218 217 219 222 218 216 224 208 204 203 200 201
33 35 34 36 52 56 77 80 75 72 72 63 62 60 63 74 76 73 72 64 16 296 282 242 216 205 190 188 191 197 199 200 198 199 200 201 198 198 202 202 202 204 201 202 205 206 210 212 211 215 220 221 217 214 216 216 217 215 211 204 205 207 205
30 26 33 36 43 49 65 78 76 73 67 65 64 65 63 70 72 69 61 30 324 316 300 287 226 197 198 198 196 193 195 196 198 199 201 199 197 198 200 201 201 201 200 200 202 203 208 210 210 212 216 218 219 212 214 214 215 213 210 202 206 211 209
28 26 23 29 34 34 45 66 74 73 65 57 57 55 58 61 67 54 37 352 349 346 339 323 236 189 201 204 202 199 198 192 192 195 195 197 194 198 201 201 195 201 202 197 202 204 206 208 204 209 211 213 215 214 213 217 213 207 205 209 205 212 215
20 20 21 21 22 28 40 48 57 63 62 50 45 53 55 54 60 55 11 334 360 351 336 329 313 182 205 206 209 209 193 189 194 191 191 189 192 199 198 195 192 197 197 195 202 201 203 204 200 206 206 208 210 210 212 184 141 148 137 151 179 201 212
13 16 17 17 6 14 34 44 48 52 57 52 32 41 42 48 50 49 14 13 359 4 348 336 308 230 199 198 194 192 191 191 186 183 183 184 190 197 197 196 195 197 194 195 197 198 202 199 195 200 199 203 205 209 172 152 161 152 149 157 151 153 163
6 6 6 11 12 15 36 47 51 54 55 52 31 37 40 41 38 22 15 9 12 1 6 6 347 237 230 194 180 179 184 188 185 175 173 160 162 178 190 189 196 195 191 190 188 189 197 194 195 195 195 201 197 171 141 161 170 170 168 168 162 147 147
357 1 1 8 359 9 12 34 54 51 60 41 33 48 41 30 15 14 16 2 9 8 26 13 352 43 67 146 156 176 183 180 173 151 123 93 82 64 45 11 354 235 181 143 188 199 193 194 199 198 198 193 177 162 172 155 187 207 160 152 160 155 151
351 354 358 356 359 9 3 355 29 51 45 23 28 41 41 23 5 353 357 351 7 26 41 24 4 12 31 68 154 164 144 126 113 114 122 124 118 107 75 61 68 42 17 84 339 350 303 224 199 199 185 160 156 176 181 194 178 100 99 99 94 93 99
347 345 345 352 3 6 4 341 331 66 41 10 23 50 51 34 5 357 350 351 351 34 62 55 28 359 46 90 139 161 137 130 125 128 126 132 127 121 116 103 51 43 43 49 47 50 33 356 174 153 158 156 127 40 89 102 105 109 110 105 102 100 99
337 319 315 327 350 350 352 341 307 351 87 265 78 74 56 33 16 348 343 349 346 0 73 70 64 331 265 126 131 127 135 135 136 135 133 128 131 129 134 120 102 56 38 43 56 57 63 54 45 70 96 98 111 122 83 100 115 119 110 104 100 98 95